Simultaneous Nadir Overpasses (SNOs) Predictions

Prediction of SNOs over PacNW region [( 10.00, 139.50) to ( 22.70, 165.60)] between AQUA and NPP Satellites:

Table of predicted SNOs over PacNW region for the next 30.0 days since TLE Epoch: 5/28/2022
Index Date (AQUA) Time (AQUA) AQUA Lat,Lon Date (NPP) Time (NPP) NPP Lat,Lon Distance(km) Time Diff (sec)
1 06/02/2022 02:29:25 11.32, 165.58 06/02/2022 02:32:33 10.43, 161.57 449.37 188
2 06/04/2022 16:07:47 22.24, 146.03 06/04/2022 16:07:40 22.82, 143.09 309.46 7
3 06/12/2022 15:16:52 22.23, 158.79 06/12/2022 15:16:45 22.81, 155.81 313.00 7
4 06/20/2022 16:04:37 22.62, 146.96 06/20/2022 16:07:08 23.45, 143.34 382.20 151
